Current Version              Previous Version:    01  02  03  04  05  06  07  08  09  10  11  12  13  14  15  16  17  18  19  20  21  22  23  24  25  26  27  28  29  30  
   31  32  33  34  35  36  37  38  39  40  41  42  43  44  45  46  47  48  49  50  51  52  53  54  55  56  57  58  59  60  

[Printable]
656
ASUS44 KEWX 301302
RWRTX
SOUTH TEXAS REGIONAL WEATHER ROUNDUP
NATIONAL WEATHER SERVICE AUSTIN/SAN ANTONIO TX
700 AM CST FRI JAN 30 2015

NOTE: "FAIR" INDICATED FEW OR NO CLOUDS BELOW 12,000 FEET WITH NO
SIGNIFICANT WEATHER AND/OR OBSTRUCTIONS TO VISIBILITY.

* - THESE STATIONS ARE NOT NWS OR FAA STATIONS...AND ARE NOT SUBJECT
    TO NWS AND FAA QUALITY CONTROL.

TXZ171-172-183>190-301400-
TEXAS HILL COUNTRY AND EDWARDS PLATEAU

CITY           SKY/WX    TMP DP  RH WIND       PRES   REMARKS
JUNCTION       CLOUDY    45  32  60 NE8       30.39S WCI  41
*LLANO         CLOUDY    48  34  57 E3        30.46S
BURNET           N/A    N/A N/A N/A MISG      30.44S
*HORSESHOE BAY CLOUDY    47  33  58 NE5       30.43S WCI  45
*KERRVILLE     MOCLDY    46  34  62 NE5       30.39S WCI  43
*FREDERICKSBRG CLOUDY    45  33  64 NE7       30.39F WCI  41
*ROCKSPRINGS   CLOUDY    45  32  61 E8        30.37S WCI  40
*BOERNE STAGE  CLOUDY    46  32  57 NE6       30.40S WCI  43
*CASTROVILLE   MOCLDY    51  34  52 NE8       30.39S
HONDO          CLOUDY    50  35  56 NE9       30.38S WCI  46
*UVALDE        MOCLDY    51  36  55 E12       30.35R
DEL RIO        CLOUDY    55  36  48 NE6       30.34S
LAUGHLIN AFB   CLOUDY    53  39  57 N5        30.35S
CARRIZO SPRGS  CLOUDY    54  36  50 E8        30.34R
$$

TXZ173-191>194-202-209-217>225-228-301400-
CENTRAL AND SOUTH CENTRAL TEXAS

CITY           SKY/WX    TMP DP  RH WIND       PRES   REMARKS
GEORGETOWN     CLOUDY    46  32  57 N8        30.45R WCI  42
AUSTIN/BERGSTM LGT RAIN  48  34  58 N15       30.42R WCI  42
AUSTIN/MABRY   LGT RAIN  48  33  56 NE5       30.44R WCI  46
*AUSTIN/EXEC   CLOUDY    46  34  61 N15       30.44R WCI  40
*LAGO VISTA    CLOUDY    47  33  58 NE10G16   30.42S WCI  42
SAN MARCOS     MOCLDY    48  34  57 N138      30.42R WCI  35
NEW BRAUNFELS  CLOUDY    50  34  54 NE14      30.39R WCI  45
RANDOLPH AFB   CLOUDY    50  32  50 NE9       30.40R WCI  46
PT SAN ANTONIO MOCLDY    52  34  50 NE15      30.36S
SAN ANTONIO    CLOUDY    52  33  48 NE12      30.39R
STINSON FIELD  CLOUDY    52  34  50 NE15      30.37S
*PLEASANTON    CLOUDY    51  36  55 NE9       30.38R
*LA GRANGE     CLOUDY    51  37  59 N7        30.39R
*GIDDINGS      CLOUDY    48  34  57 NE8       30.45R WCI  45
*GONZALES      NOT AVBL
$$

TXZ163>164-176>182-195>201-210>213-226-227-235-301400-
SOUTHEAST TEXAS

CITY           SKY/WX    TMP DP  RH WIND       PRES   REMARKS
COLLEGE STN    CLOUDY    47  34  60 N10G20    30.43R WCI  42
*BRYAN         CLOUDY    45  34  67 N6        30.44R WCI  41
*CALDWELL      CLOUDY    46  32  57 N6        30.46R WCI  43
*CROCKETT      CLOUDY    46  37  71 NE8       30.45R WCI  42
*BRENHAM       CLOUDY    49  37  61 N7        30.42R WCI  46
HUNTSVILLE     CLOUDY    44  35  70 VRB3      30.41R
CONROE         CLOUDY    47  36  65 N5        30.40R WCI  45
HOUSTON BUSH   CLOUDY    50  39  66 NE10      30.38R WCI  46
HOUSTON HOBBY  MOCLDY    52  40  63 NE15      30.37R
*HOUSTON SW AP MOCLDY    49  40  71 N6        30.38R WCI  47
PEARLAND       MOCLDY    53  41  63 NE12      30.39R
HOUSTON HOOKS  MOCLDY    50  37  61 NE6       30.39R WCI  48
ELLINGTON FLD  PTCLDY    54  39  58 N12       30.38
SUGAR LAND     MOCLDY    52  39  61 NE13      30.37R
*HOUSTON EXEC  MOCLDY    46  39  76 N6        30.40R WCI  43
*CLEVELAND MUN MOCLDY    46  39  76 NE5       30.39R WCI  44
*WHARTON       PTCLDY    50  41  70 N9        30.37R WCI  47
*COLUMBUS      MOCLDY    50  37  60 N7        30.39R WCI  47
$$

TXZ214>216-236>238-301400-
THE UPPER TEXAS COAST

CITY           SKY/WX    TMP DP  RH WIND       PRES   REMARKS
*ORANGE        CLOUDY    50  42  74 NE12G17   30.38R WCI  46
PORT ARTHUR    CLOUDY    51  42  71 N10       30.36R
GALVESTON      MOCLDY    53  45  74 N16       30.36R
ANGLETON       CLOUDY    53  43  68 NE12      30.35R
*BAY CITY      PTCLDY    55  46  70 N7        30.35R
PALACIOS       PTCLDY    51  45  79 N9        30.35R
$$

TXZ229>234-239>247-301400-
TEXAS COASTAL BEND AND RIO GRANDE PLAINS

CITY           SKY/WX    TMP DP  RH WIND       PRES   REMARKS
VICTORIA       PTCLDY    52  40  63 N10       30.37R
*BEEVILLE      CLOUDY    54  41  61 N14       30.36R
ROCKPORT       PTCLDY    55  43  63 N15       30.34R
*PORT ARANSAS  PTCLDY    56  48  73 N13G20    30.33R
*PORT LAVACA   PTCLDY    51  43  73 N9        30.36R
*INGLESIDE     PTCLDY    55  44  68 N14       30.33R
CORPUS CHRISTI MOCLDY    56  45  66 NE14      30.33R
CORPUS NAS     MOCLDY    56  48  74 N15       30.33R
*ROBSTOWN      NOT AVBL
ALICE          CLOUDY    58  44  60 NE13      30.34R
KINGSVILLE NAS MOCLDY    58  48  69 N13       30.33S
COTULLA        NOT AVBL
*FAITH RANCH   MOCLDY    57  39  51 E13       30.33R
LAREDO         MOCLDY    58  41  53 NE17G24   30.34R
$$

TXZ248>255-301400-
DEEP SOUTH TEXAS

CITY           SKY/WX    TMP DP  RH WIND       PRES   REMARKS
BROWNSVILLE    FOG       60  59  96 CALM      30.28R VSB 1/2
PORT ISABEL    PTCLDY    62  61  96 NE7       30.28R FOG
*SOUTH PADRE   PTCLDY    61  61 100 E7        30.28S
HARLINGEN      FOG       61  61 100 NE7       30.28R VSB 1/2
*HEBBRONVILLE  LGT RAIN  57  49  74 NE12      30.33R
MCALLEN        CLOUDY    63  61  93 NE6       30.30R
*WESLACO       FOG       60  58  94 NE3       30.28S VSB 1/4
FALFURRIAS     CLOUDY    58  51  78 N10       30.32R
EDINBURG       FOG       62  60  92 NE3       30.30R VSB 1/4
*ZAPATA        CLOUDY    61  61 100 E8        30.30R FOG
$$

TXZ213>215-236>238-242>244-246-247-251-254-255-301400-
CMAN STATIONS

STATION/POSITION TIME  TEMP    WIND        PRES    WAVE
                       AIR SEA DIR/SP/G            HT/PER
                 (UTC) (F)     (DEG/KT/KT) (MB)    (FT/S)
SABINE PASS      1200   53 56   40/ 11/ 14 1027.5
SEA RIM ST PARK  1200   53      30/  9/ 13 1027.7
NORTH JETTY/GLS  1200   54 59   50/ 17/ 18   N/A
EAGLE POINT      1200   54 57   40/ 12/ 16 1028.0
MORGANS POINT    1200   53      40/  8/ 10 1028.1
PORT O`CONNOR    1200          360/ 15/ 17   N/A
PORT ARANSAS     1200   57 61  360/ 16/ 18 1027.1
MALAQUITE BEACH  1200   59 64  360/ 18/ 22 1026.0
BAFFIN BAY       1200   60      30/ 16/ 20 1026.4
PORT ISABEL      1200   63 61   30/  5/  6 1025.1
$$

GMZ080-GMZ150>470-301400-
OFFSHORE BUOY REPORTS

STATION/POSITION TIME  TEMP    WIND        PRES    WAVE
                       AIR SEA DIR/SP/G            HT/PER
                 (UTC) (F)     (DEG/KT/KT) (MB)    (FT/S)
20 E GALVESTON   1300   56 58   40/ 17/ 21 1026.7    3/ 4
90 E PT ARANSAS  1300   63 66   40/ 19/ 23 1025.8    3/ 4
35 NE PT MANSFLD 1300   66 67   20/ 16/ 17 1025.2    1/ 4
200 E PT ISABEL  1300   70 72   60/  8/ 10 1024.8    1/ 5
$$